| time (UTC) | temp C | wind direction | speed KPH | gust KPH | rain 1hr cm | rain 24hr cm | rain mn cm | humidity % | barometer mb |
| 20260505123553 | 14 | 41 | 0.0 | 6.4 | 0.00 | 0.61 | 0.61 | 89 | 1006.1 |
| 20260505122050 | 14 | 114 | 0.0 | 4.8 | 0.00 | 0.61 | 0.61 | 91 | 1005.7 |
| 20260505120545 | 14 | 20 | 6.4 | 8.0 | 0.00 | 0.61 | 0.61 | 91 | 1004.9 |
| 20260505115045 | 14 | 131 | 0.0 | 8.0 | 0.00 | 0.61 | 0.61 | 91 | 1005.5 |
| 20260505113541 | 15 | 108 | 0.0 | 6.4 | 0.00 | 0.61 | 0.61 | 91 | 1004.8 |
| 20260505112038 | 15 | 146 | 3.2 | 8.0 | 0.00 | 0.61 | 0.61 | 93 | 1004.6 |
| 20260505110536 | 15 | 152 | 3.2 | 6.4 | 0.00 | 0.61 | 0.61 | 95 | 1004.6 |
| 20260505102026 | 16 | 110 | 0.0 | 3.2 | 0.00 | 0.61 | 0.61 | 94 | 1005.2 |
| 20260505100524 | 16 | 157 | 1.6 | 3.2 | 0.00 | 0.61 | 0.61 | 94 | 1005.4 |
| 20260505095019 | 16 | 10 | 3.2 | 6.4 | 0.00 | 0.61 | 0.61 | 94 | 1005.0 |
| 20260505093514 | 16 | 312 | 0.0 | 3.2 | 0.00 | 0.61 | 0.61 | 93 | 1004.2 |
| 20260505092013 | 16 | 156 | 0.0 | 3.2 | 0.00 | 0.61 | 0.61 | 92 | 1003.8 |
| 20260505090512 | 16 | 196 | 3.2 | 4.8 | 0.00 | 0.61 | 0.61 | 92 | 1004.2 |
| 20260505085011 | 16 | 185 | 4.8 | 9.7 | 0.00 | 0.61 | 0.61 | 93 | 1004.2 |
| 20260505083509 | 16 | 145 | 3.2 | 8.0 | 0.00 | 0.58 | 0.58 | 94 | 1003.4 |
| 20260505082004 | 16 | 185 | 4.8 | 8.0 | 0.00 | 0.58 | 0.58 | 94 | 1003.3 |
| 20260505080459 | 16 | 196 | 1.6 | 4.8 | 0.05 | 0.58 | 0.58 | 95 | 1003.3 |
| 20260505074954 | 16 | 189 | 6.4 | 6.4 | 0.00 | 0.58 | 0.58 | 95 | 1003.6 |
| 20260505073452 | 16 | 151 | 3.2 | 4.8 | 0.13 | 0.56 | 0.56 | 95 | 1005.4 |
| 20260505071947 | 16 | 176 | 3.2 | 4.8 | 0.43 | 0.51 | 0.51 | 94 | 1005.3 |
| 20260505070444 | 16 | 232 | 8.0 | 20.9 | 0.36 | 0.38 | 0.38 | 93 | 1006.5 |
| 20260505064939 | 16 | 164 | 3.2 | 14.5 | 0.36 | 0.28 | 0.28 | 92 | 1006.7 |
| 20260505063436 | 17 | 217 | 12.9 | 16.1 | 0.43 | 0.18 | 0.18 | 90 | 1006.5 |
| 20260505061932 | 17 | 180 | 9.7 | 11.3 | 0.30 | 0.08 | 0.08 | 83 | 1005.3 |
| 20260505060431 | 18 | 142 | 6.4 | 9.7 | 0.05 | 0.00 | 0.00 | 76 | 1004.6 |
| 20260505054926 | 19 | 147 | 6.4 | 9.7 | 0.00 | 0.00 | 0.00 | 71 | 1004.1 |
| 20260505053424 | 19 | 15 | 1.6 | 4.8 | 0.00 | 0.00 | 0.00 | 72 | 1004.1 |
| 20260505051921 | 19 | 147 | 1.6 | 6.4 | 0.00 | 0.00 | 0.00 | 71 | 1004.5 |
| 20260505050419 | 19 | 165 | 1.6 | 4.8 | 0.00 | 0.00 | 0.00 | 71 | 1004.6 |
| 20260505040405 | 19 | 100 | 0.0 | 3.2 | 0.00 | 0.00 | 0.00 | 71 | 1004.6 |
| 20260505034900 | 19 | 169 | 3.2 | 8.0 | 0.00 | 0.00 | 0.00 | 69 | 1005.0 |
| 20260505033356 | 20 | 136 | 1.6 | 6.4 | 0.00 | 0.00 | 0.00 | 70 | 1004.7 |
| 20260505031853 | 20 | 147 | 1.6 | 6.4 | 0.00 | 0.00 | 0.00 | 69 | 1005.2 |
| 20260505030349 | 20 | 148 | 3.2 | 6.4 | 0.00 | 0.00 | 0.00 | 68 | 1004.9 |
| 20260505024847 | 20 | 105 | 3.2 | 4.8 | 0.00 | 0.00 | 0.00 | 67 | 1005.3 |
| 20260505023344 | 20 | 159 | 1.6 | 3.2 | 0.00 | 0.00 | 0.00 | 68 | 1005.3 |
| 20260505021841 | 21 | 89 | 1.6 | 3.2 | 0.00 | 0.00 | 0.00 | 66 | 1004.9 |
| 20260505020341 | 21 | 167 | 3.2 | 6.4 | 0.00 | 0.00 | 0.00 | 64 | 1004.7 |
| 20260505014838 | 21 | 146 | 0.0 | 6.4 | 0.00 | 0.00 | 0.00 | 64 | 1004.6 |
| 20260505013334 | 21 | 162 | 1.6 | 4.8 | 0.00 | 0.00 | 0.00 | 63 | 1004.6 |
| 20260505011832 | 21 | 196 | 0.0 | 4.8 | 0.00 | 0.00 | 0.00 | 62 | 1004.5 |
| 20260505010333 | 22 | 187 | 6.4 | 9.7 | 0.00 | 0.00 | 0.00 | 59 | 1004.3 |
| 20260505004830 | 22 | 173 | 4.8 | 6.4 | 0.00 | 0.00 | 0.00 | 58 | 1004.3 |
| 20260505003326 | 23 | 169 | 3.2 | 9.7 | 0.00 | 0.00 | 0.00 | 59 | 1004.1 |
| 20260505001823 | 23 | 153 | 6.4 | 8.0 | 0.00 | 0.00 | 0.00 | 57 | 1004.0 |
| 20260505000321 | 23 | 190 | 4.8 | 6.4 | 0.00 | 0.00 | 0.00 | 58 | 1003.9 |
| 20260504234816 | 24 | 185 | 3.2 | 14.5 | 0.00 | 0.00 | 0.00 | 53 | 1003.8 |
| 20260504233312 | 24 | 162 | 1.6 | 4.8 | 0.00 | 0.00 | 0.00 | 57 | 1003.7 |
| 20260504231809 | 25 | 186 | 9.7 | 11.3 | 0.00 | 0.00 | 0.00 | 52 | 1003.9 |
| 20260504230306 | 26 | 174 | 6.4 | 9.7 | 0.00 | 0.00 | 0.00 | 49 | 1003.9 |
| 20260504224803 | 27 | 175 | 3.2 | 4.8 | 0.00 | 0.00 | 0.00 | 51 | 1003.7 |
| 20260504223258 | 26 | 163 | 4.8 | 11.3 | 0.00 | 0.00 | 0.00 | 47 | 1003.6 |
| 20260504221755 | 26 | 198 | 8.0 | 9.7 | 0.00 | 0.00 | 0.00 | 50 | 1003.4 |
| 20260504220252 | 27 | 183 | 6.4 | 9.7 | 0.00 | 0.00 | 0.00 | 48 | 1003.6 |
| 20260504214747 | 28 | 199 | 9.7 | 14.5 | 0.00 | 0.00 | 0.00 | 47 | 1003.9 |
| 20260504213243 | 28 | 194 | 9.7 | 11.3 | 0.00 | 0.00 | 0.00 | 47 | 1003.6 |
| 20260504211740 | 27 | 183 | 9.7 | 14.5 | 0.00 | 0.00 | 0.00 | 45 | 1003.8 |
| 20260504210236 | 28 | 190 | 6.4 | 17.7 | 0.00 | 0.00 | 0.00 | 47 | 1003.9 |
| 20260504204735 | 28 | 194 | 16.1 | 17.7 | 0.00 | 0.00 | 0.00 | 46 | 1004.3 |
| 20260504203235 | 27 | 177 | 3.2 | 4.8 | 0.00 | 0.00 | 0.00 | 49 | 1004.5 |
| 20260504201735 | 27 | 185 | 14.5 | 17.7 | 0.00 | 0.00 | 0.00 | 49 | 1004.5 |
| 20260504200231 | 28 | 194 | 6.4 | 16.1 | 0.00 | 0.00 | 0.00 | 48 | 1004.8 |
| 20260504194727 | 28 | 197 | 8.0 | 8.0 | 0.00 | 0.00 | 0.00 | 47 | 1004.8 |
| 20260504193223 | 27 | 176 | 9.7 | 20.9 | 0.00 | 0.00 | 0.00 | 46 | 1005.2 |
| 20260504191723 | 27 | 191 | 11.3 | 27.4 | 0.00 | 0.00 | 0.00 | 43 | 1005.5 |
| 20260504190223 | 27 | 178 | 11.3 | 20.9 | 0.00 | 0.00 | 0.00 | 49 | 1005.6 |
| 20260504184719 | 27 | 201 | 4.8 | 14.5 | 0.00 | 0.00 | 0.00 | 47 | 1005.2 |
| 20260504183214 | 27 | 171 | 6.4 | 16.1 | 0.00 | 0.00 | 0.00 | 49 | 1004.9 |
| 20260504181712 | 27 | 204 | 9.7 | 19.3 | 0.00 | 0.00 | 0.00 | 47 | 1005.4 |
| 20260504180213 | 27 | 158 | 6.4 | 22.5 | 0.00 | 0.00 | 0.00 | 49 | 1005.6 |
| 20260504174710 | 26 | 211 | 8.0 | 19.3 | 0.00 | 0.00 | 0.00 | 47 | 1005.5 |
| 20260504173207 | 26 | 186 | 6.4 | 17.7 | 0.00 | 0.00 | 0.00 | 49 | 1005.6 |
| 20260504171702 | 26 | 190 | 11.3 | 20.9 | 0.00 | 0.00 | 0.00 | 45 | 1005.8 |
| 20260504170159 | 25 | 170 | 3.2 | 17.7 | 0.00 | 0.00 | 0.00 | 50 | 1006.0 |
| 20260504160152 | 24 | 172 | 8.0 | 20.9 | 0.00 | 0.00 | 0.00 | 50 | 1006.4 |
| 20260504150143 | 22 | 169 | 16.1 | 17.7 | 0.00 | 0.00 | 0.00 | 53 | 1006.6 |
| 20260504140128 | 20 | 183 | 9.7 | 16.1 | 0.00 | 0.00 | 0.00 | 55 | 1007.4 |
| 20260504130117 | 17 | 185 | 9.7 | 16.1 | 0.00 | 0.00 | 0.00 | 61 | 1007.7 |